Regional Weather Roundup
Issued by NWS Northern Indiana

Home | Current Version | Previous Version | Graphics & Text | Print | Product List | Glossary On
Versions: 1 2 3 4 5 6 7 8 9 10 11 12 13 14 15 16 17 18 19 20 21 22 23 24 25 26 27 28 29 30 31 32 33 34 35 36 37 38 39 40 41 42 43 44 45 46 47 48 49 50
760
ASUS43 KIWX 261910
RWRIWX

KIWX WEATHER ROUNDUP
NATIONAL WEATHER SERVICE NORTHERN INDIANA
300 PM EDT SAT MAY 26 2018

NOTE: "FAIR" INDICATES FEW OR NO CLOUDS BELOW 12,000 FEET WITH NO
SIGNIFICANT WEATHER AND/OR OBSTRUCTIONS TO VISIBILITY.

* THESE STATIONS ARE NOT UNDER NWS QUALITY CONTROL. THEY ALSO MAY NOT
  REPORT WEATHER SUCH AS PRECIPITATION OR FOG.

INZ001>027-262000-
NORTHERN INDIANA

CITY           SKY/WX    TMP DP  RH WIND       PRES   REMARKS
GARY*          MOSUNNY   86  55  35 NE12      29.79F
VALPARAISO     PTSUNNY   88  65  46 NW7       29.79
LAPORTE*       FAIR      84  65  52 W8        29.80S
KNOX*          FAIR      86  63  45 NW3       29.78F
SOUTH BEND     PTSUNNY   83  65  54 NW5       29.79F
ELKHART*       MOSUNNY   86  64  48 NW5       29.78F
GOSHEN         FAIR      84  67  56 W10G16    29.79F
ROCHESTER*     PTSUNNY   84  66  54 SW8       29.80F
WARSAW*        PTSUNNY   79  68  69 S3        29.80F
AUBURN*        PTSUNNY   79  70  73 W5        29.81F
FORT WAYNE     CLOUDY    82  68  62 CALM      29.80F
PERU/GRISSOM   FAIR      82  69  63 SW8       29.80F
MARION*        CLOUDY    78  67  68 CALM      29.81F

$$
INZ028>050-262000-
CENTRAL INDIANA

CITY           SKY/WX    TMP DP  RH WIND       PRES   REMARKS
LAFAYETTE      FAIR      82  68  62 W7        29.80F
KOKOMO*        FAIR      83  67  58 SW10G23   29.81F
MUNCIE*        PTSUNNY   79  72  79 W8        29.81F
INDIANAPOLIS   PTSUNNY   83  66  56 SW15      29.81F

$$
MIZ043>046-050>051-056>058-064>065-071>073-077>080-262000-
SOUTHWEST LOWER MICHIGAN

CITY           SKY/WX    TMP DP  RH WIND       PRES   REMARKS
BATTLE CREEK   FAIR      83  64  52 W8        29.79F
BENTON HARBOR  FAIR      80  62  54 VRB6      29.79F
COLDWATER*     PTSUNNY   85  56  37 W7        29.79S
HILLSDALE*     CLOUDY    77  66  69 SW5       29.79F
HOLLAND        FAIR      78  63  59 W6        29.79S
GRAND RAPIDS   FAIR      82  67  60 SW10      29.77F
KALAMAZOO      FAIR      85  60  42 NW9       29.78F
STURGIS*       FAIR      84  65  51 NW6       29.78F
THREE RIVERS*  FAIR      84  56  38 W7        29.79F

$$
OHZ001>008-015>018-024>025-262000-
NORTHWEST OHIO

CITY           SKY/WX    TMP DP  RH WIND       PRES   REMARKS
DEFIANCE       FAIR      82  67  60 VRB5      29.79F
FINDLAY        PTSUNNY   86  62  44 S8G20     29.77F
TOLEDO EXPRESS PTSUNNY   82  69  64 CALM      29.78F
TOLEDO METCALF LGT RAIN  76  71  85 NE5       29.79F
LIMA           FAIR      82  62  50 SW14      29.80F

$$
AND FOR LAKE MICHIGAN COASTAL AND OPEN LAKE BUOY OBSERVATIONS

STATION/POSITION TEMP    WIND        PRES    VSBY  WAVE
                 AIR SEA DIR/SP/G                  HT/PER
                 (F)     (DEG/KT/KT) (MB)    (MI)  (FT/S)
CALUMET HARBOR    78      60/  8/ 10 1008.3S
MICHIGAN CITY     75      20/  3/  3   N/A
BURNS HARBOR      74        CALM     1009.5S
SAINT JOSEPH      73     210/  4/  5 1010.2
SOUTH LAKE BUOY   49 40  190/  8/  8 1008.9F         0
4 MI NW BRIDGMAN  72 63  290/  2/  4 1008.8          0
MICHIGAN CITY     74     340/  4/  4   N/A           0

$$
&&




USA.gov is the U.S. government's official web portal to all federal, state and local government web resources and services.